Terug naar catalogus

STARLINK-1048

ActiefCommunicatieVLEO
NORAD 44753·PAYLOAD·🇺🇸 United States

Gelanceerd Nov 11, 2019 vanaf Cape Canaveral Space Force Station

Loading…

Volgende Passages (komende 24 uur)

TLE

VersSource: CelesTrak SupGP

Epoch: Sep 14, 2026, 22:00 UTC

1 44753C 19074AS  26257.91715278  .00075468  00000+0  41338-3 0  2574
2 44753  53.0407 316.9650 0006541  14.1013 350.9698 15.79047793    13

Volg STARLINK-1048 in realtime met AllMySat

Download on the App Store